This is the latest recevied weather packets stored in our database for station/object KP4OZ. If no packets are shown the sender has not sent any weather packets the latest 10 day(s).
| Time | Temp. | Humidity | Pressure | Rain* | Wind** | Luminosity | Snow |
|---|---|---|---|---|---|---|---|
| 1777735414 | 31.11° C | 68% | 1017.4 hPa | 0 mm | - | - | - |
| 1777735111 | 31.11° C | 68% | 1017.2 hPa | 0 mm | - | - | - |
| 1777734808 | 30.56° C | 69% | 1017.6 hPa | 0 mm | - | - | - |
| 1777734506 | 30.56° C | 69% | 1017.3 hPa | 0 mm | - | - | - |
| 1777734202 | 31.11° C | 68% | 1017.6 hPa | 0 mm | - | - | - |
| 1777733898 | 31.11° C | 67% | 1017.5 hPa | 0 mm | - | - | - |
| 1777733595 | 30.56° C | 69% | 1017.6 hPa | 0 mm | - | - | - |
| 1777733291 | 30.56° C | 68% | 1017.4 hPa | 0 mm | - | - | - |
| 1777732989 | 30.56° C | 70% | 1017.6 hPa | 0 mm | - | - | - |
| 1777732684 | 30.56° C | 68% | 1017.5 hPa | 0 mm | - | - | - |
| 1777732382 | 31.11° C | 67% | 1017.6 hPa | 0 mm | - | - | - |
| 1777732080 | 30.56° C | 67% | 1017.6 hPa | 0 mm | - | - | - |
| 1777731776 | 30.56° C | 69% | 1017.6 hPa | 0 mm | - | - | - |
| 1777731473 | 30.56° C | 70% | 1017.4 hPa | 0 mm | - | - | - |
| 1777731171 | 30.56° C | 69% | 1017.5 hPa | 0 mm | - | - | - |
| 1777730869 | 30.56° C | 68% | 1017.5 hPa | 0 mm | - | - | - |
| 1777730567 | 30° C | 69% | 1017.5 hPa | 0 mm | - | - | - |
| 1777730262 | 30.56° C | 67% | 1017.5 hPa | 0 mm | - | - | - |
| 1777729959 | 29.44° C | 69% | 1017.5 hPa | 0 mm | - | - | - |
| 1777729655 | 29.44° C | 70% | 1017.5 hPa | 0 mm | - | - | - |
| 1777729352 | 29.44° C | 68% | 1017.5 hPa | 0 mm | - | - | - |
| 1777729049 | 28.89° C | 70% | 1017.5 hPa | 0 mm | - | - | - |
| 1777728745 | 28.89° C | 71% | 1017.5 hPa | 0 mm | - | - | - |
| 1777728442 | 28.89° C | 71% | 1017.2 hPa | 0 mm | - | - | - |
| 1777728139 | 28.89° C | 71% | 1017.4 hPa | 0 mm | - | - | - |
* Rain latest hour (hover to see other rain measurements)
** Current wind speed in m/s (hover to see current wind gust speed)